TimeEDT,TemperatureF,Dew PointF,Humidity,Sea Level PressureIn,VisibilityMPH,Wind Direction,Wind SpeedMPH,Gust SpeedMPH,PrecipitationIn,Events,Conditions,WindDirDegrees,DateUTC
12:00 AM,60.8,50.0,68,29.95,9.0,South,11.5,-,N/A,,Mostly Cloudy,180,2012-10-05 04:00:00
1:00 AM,60.8,50.0,68,29.95,9.0,South,4.6,-,N/A,,Partly Cloudy,190,2012-10-05 05:00:00
2:00 AM,63,51,54,29.93,9,SSE,5.8,,,,Overcast,160,2012-10-05 06:00:00
2:00 AM,62.6,50.0,63,29.93,9.0,South,4.6,-,N/A,,Overcast,180,2012-10-05 06:00:00
3:00 AM,64.4,51.8,64,29.93,9.0,SW,9.2,-,N/A,,Overcast,230,2012-10-05 07:00:00
4:00 AM,62.6,51.8,68,29.92,9.0,SW,6.9,-,N/A,,Overcast,220,2012-10-05 08:00:00
5:00 AM,62.6,53.6,72,29.91,9.0,SSW,8.1,-,N/A,,Overcast,210,2012-10-05 09:00:00
6:00 AM,62.6,53.6,72,29.92,9.0,WSW,8.1,-,N/A,,Overcast,240,2012-10-05 10:00:00
6:29 AM,62.6,53.6,72,29.92,9.0,WSW,10.4,-,N/A,,Overcast,240,2012-10-05 10:29:00
7:00 AM,62.6,53.6,72,29.94,9.0,WSW,9.2,-,N/A,,Overcast,250,2012-10-05 11:00:00
7:01 AM,62.6,53.6,72,29.93,9.0,WSW,10.4,-,N/A,,Mostly Cloudy,250,2012-10-05 11:01:00
7:03 AM,62.6,53.6,72,29.93,9.0,WSW,13.8,-,N/A,,Overcast,250,2012-10-05 11:03:00
7:11 AM,62.6,51.8,68,29.92,9.0,WSW,12.7,18.4,N/A,,Overcast,250,2012-10-05 11:11:00
8:00 AM,60.8,50.0,68,29.95,9.0,West,8.1,-,N/A,,Overcast,260,2012-10-05 12:00:00
9:00 AM,59.0,48.2,67,29.96,9.0,WSW,11.5,17.3,N/A,,Scattered Clouds,250,2012-10-05 13:00:00
10:00 AM,59.0,46.4,63,29.97,9.0,WSW,16.1,23.0,N/A,,Mostly Cloudy,250,2012-10-05 14:00:00
11:00 AM,60.8,44.6,55,29.96,9.0,WSW,17.3,-,N/A,,Mostly Cloudy,240,2012-10-05 15:00:00
12:00 PM,62.6,42.8,48,29.95,9.0,WSW,13.8,20.7,N/A,,Partly Cloudy,240,2012-10-05 16:00:00
1:00 PM,60.8,42.8,52,29.95,9.0,WSW,9.2,-,N/A,,Partly Cloudy,250,2012-10-05 17:00:00
2:00 PM,62,39,31,29.94,9,West,12.7,,,,,260,2012-10-05 18:00:00
2:00 PM,60.8,39.2,45,29.94,9.0,WSW,13.8,19.6,N/A,,Clear,250,2012-10-05 18:00:00
4:00 PM,62.6,35.6,37,29.92,9.0,WSW,13.8,-,N/A,,Clear,250,2012-10-05 20:00:00
5:00 PM,60.8,33.8,36,29.91,9.0,WSW,10.4,-,N/A,,Clear,240,2012-10-05 21:00:00
6:00 PM,57.2,35.6,44,29.91,9.0,SW,6.9,-,N/A,,Clear,230,2012-10-05 22:00:00
7:00 PM,57.2,33.8,41,29.91,9.0,WSW,8.1,-,N/A,,Mostly Cloudy,250,2012-10-05 23:00:00
7:32 PM,55.4,35.6,47,29.90,9.0,WSW,6.9,-,N/A,Rain,Light Rain,250,2012-10-05 23:32:00
8:00 PM,51,42,62,29.91,9,SW,8.1,,,,Unknown Precipitation,220,2012-10-06 00:00:00
8:00 PM,51.8,42.8,71,29.91,9.0,SW,9.2,-,N/A,Rain,Light Rain,220,2012-10-06 00:00:00
8:11 PM,51.8,41.0,67,29.91,9.0,SW,6.9,-,N/A,,Overcast,230,2012-10-06 00:11:00
9:00 PM,50.0,42.8,76,29.94,9.0,SW,6.9,-,N/A,Rain,Light Rain,220,2012-10-06 01:00:00
9:21 PM,50.0,42.8,76,29.90,9.0,SSW,5.8,-,N/A,,Overcast,210,2012-10-06 01:21:00
9:36 PM,50.0,42.8,76,29.90,9.0,SSW,4.6,-,N/A,Rain,Light Rain,210,2012-10-06 01:36:00
9:37 PM,50.0,42.8,76,29.90,9.0,SSW,4.6,-,N/A,,Overcast,210,2012-10-06 01:37:00
10:00 PM,50.0,42.8,76,29.91,9.0,SSW,6.9,-,N/A,,Overcast,200,2012-10-06 02:00:00
11:00 PM,50.0,41.0,71,29.87,9.0,SSW,6.9,-,N/A,,Overcast,200,2012-10-06 03:00:00
11:24 PM,50.0,42.8,76,29.85,9.0,SSW,8.1,-,N/A,Rain,Light Rain,200,2012-10-06 03:24:00